Location: Albany
(35.0170°S, 117.8920°E)
Time: 18:19:55
(UTC+08:00)

S-56A Canister/Altair - Visible Passes

Search period start: 24 January 2021 00:00
Search period end: 03 February 2021 00:00
Orbit: 633 x 2499 km, 38.9° (Epoch: 23 January)

Date Brightness Start Highest point End Pass type
(mag) Time Alt. Az. Time Alt. Az. Time Alt. Az.
24 Jan 9.9 20:06:22 10° WSW 20:19:29 53° NW 20:28:07 13° NNE visible
24 Jan 10.7 22:17:49 10° W 22:22:25 13° WNW 22:25:33 11° NW visible
25 Jan 10.0 19:32:27 10° WSW 19:46:21 59° NW 19:56:18 10° NE visible
25 Jan 10.6 21:42:39 10° W 21:49:44 18° NW 21:54:39 12° NNW visible
26 Jan 10.6 21:07:59 10° W 21:16:57 23° NW 21:23:48 11° N visible
27 Jan 10.6 20:33:36 10° W 20:44:05 28° NW 20:52:15 10° N visible
28 Jan 10.7 19:59:22 10° WSW 20:11:07 33° NW 20:20:13 10° NNE visible
29 Jan 10.7 19:25:16 10° WSW 19:38:04 38° NW 19:48:01 10° NNE visible
30 Jan 11.3 21:06:35 10° WNW 21:08:07 10° WNW 21:09:36 10° NW visible
31 Jan 11.2 20:29:16 10° W 20:35:16 14° WNW 20:40:37 10° NNW visible
01 Feb 11.2 19:54:01 10° W 20:02:20 18° NW 20:09:35 10° NNW visible
